QB50P1

Last updated on Mon Sep 15 2025 00:03:09 GMT+0000 (Coordinated Universal Time)

1 40025U 14033R 25257.21795131 .00006126 00000+0 36078-3 0 9993 2 40025 98.0923 245.3226 0012460 89.1502 271.1154 15.11953475611231
UTC large
Height (km)
Speed (km/s)
/
Latitude / Longitude
Inclination (degrees)
Orbital Period (minutes)
Azimuth
Elevation
Range (km)
Doppler Factor

Next 0 passes for location: London (51.5072 / 0.1276)

Sorry there are no passes over London.